Погода в Вила-Велье

Бразилия     20°19′49″S   40°17′31″W
темп.,
°C
ветер,
м/с
пор.,
м/с
влажн.,
%
обл.,
%
осадки,
мм/ч
давл.,
гПа
погр.,
м
10 августа, ср
ср1000:00+21с488160 0.0 1018407
03:00+21с488143 0.0 1016347
06:00+20с5118223 0.0 1016489
09:00+25с812586 0.0 1016855
12:00+29с7114161 0.0 1013821
15:00+29ссв71048100 0.0 10091134
18:00+25св81466100 0.0 1010409
21:00+24с51169100 0.0 1011570
11 августа, чт
чт1100:00+23ю467180 0.0 1013303
03:00+22ююз347598 0.0 1012475
06:00+22юз2374100 0.0 1014381
09:00+23ююз455476 0.0 1017729
12:00+24ююв6643100 0.0 1016668
15:00+24ююв5646100 0.0 1015694
18:00+23ююз71064100 0.0 1017994
21:00+21ююз111667100 0.0 10201088
12 августа, пт
пт1200:00+21ююз91369100 0.0 10211299
03:00+20юз71274100 0.1 10211090
06:00+19юз61073100 0.1 1023784
09:00+21ююз796693 0.2 10251047
12:00+22ю786341 0.2 10241249
15:00+22ююв7859100 0.3 10231231
18:00+21ююв5658100 0.0 10241131
21:00+20ю456993 0.1 1025733
13 августа, сб
сб1300:00+20ююв4574100 0.8 1025533
03:00+20ююв347696 1.9 1024546
06:00+20ю237293 0.4 1025616
09:00+21ю226376 0.6 1027890
12:00+22вюв435476 0.1 10261246
15:00+22в43544 0.1 10241093
18:00+21всв45590 0.0 1024804
21:00+20св236220 0.0 1025511
14 августа, вс
вс1400:00+19ссз226751 0.0 1025353
03:00+18зсз227083 0.0 1023209
06:00+18сз126950 0.0 1023195
09:00+21с235912 0.0 1024683
12:00+23всв55540 0.0 1023927
15:00+23всв66530 0.0 10201045
18:00+22всв67670 0.0 1021965
21:00+21св467085 0.0 1023791